Home   Weather   Bydgoszcz   Past weeks

Flag for Poland Past Weather in Bydgoszcz, Poland — Yesterday and Last 2 Weeks

Now
51 °F

Overcast.


Feels Like: 51 °F
Forecast: 40 / 43 °F
Wind: 3 mph from Southwest

Location: Torun

Current Time: Feb 28, 2017 at 1:39:08 pm

Latest Report: Feb 28, 2017 at 12:00 pm


Visibility: 10 mi

Pressure: 29.41 "Hg

Humidity: 62%

Dew Point: 38 °F

Location of BydgoszczLocation

Past Weather in Bydgoszcz — Graph

°F

Bydgoszcz Temperature Yesterday

Maximum temperature yesterday: 55 °F (at 3:00 pm)
Minimum temperature yesterday: 41 °F (at 6:00 am)
Average temperature yesterday: 46 °F

High & Low Weather Summary for the Past Weeks

 TemperatureHumidityPressure
High55 °F (Feb 27, 3:00 pm)100% (Feb 17, 5:00 am)30.75 "Hg (Feb 17, 5:00 am)
Low16 °F (Feb 14, 7:00 am)44% (Feb 14, 3:00 pm)29.06 "Hg (Feb 24, 4:00 am)
Average37 °F84%29.95 "Hg
* Reported Feb 13 11:00 am — Feb 28 11:00 am, Bydgoszcz, Weather by CustomWeather, © 2017

Note: Actual official high and low records may vary slightly from our data, if they occured in-between our weather recording intervals... More about our weather records

Advertising

Bydgoszcz Weather History for the Previous 24 Hours

Scroll right to see more
 ConditionsComfort  
Time TempWeatherWind HumidityBarometerVisibility
11:00 am
Tue, Feb 28
49 °FOvercast.3 mph66%29.41 "Hg10 mi
10:00 am45 °FOvercast.3 mph75%29.44 "Hg9 mi
9:00 am44 °FOvercast.3 mph78%29.41 "Hg9 mi
8:00 am42 °FOvercast.3 mph83%29.41 "Hg6 mi
7:00 am41 °FPartly sunny.2 mph83%29.41 "Hg8 mi
6:00 am41 °FPassing clouds.2 mph87%29.41 "Hg7 mi
5:00 am40 °FPassing clouds.2 mph85%29.44 "Hg7 mi
4:00 am40 °FClear.2 mph83%29.44 "Hg9 mi
3:00 am41 °FPassing clouds.2 mph81%29.47 "Hg7 mi
2:00 am41 °FClear.2 mph78%29.50 "Hg9 mi
1:00 am43 °FPassing clouds.3 mph70%29.50 "Hg6 mi
12:00 am44 °FPassing clouds.3 mph65%29.54 "Hg9 mi
11:00 pm
Mon, Feb 27
46 °FClear.3 mph58%29.55 "Hg9 mi
10:00 pm45 °FClear.3 mph61%29.57 "Hg7 mi
9:00 pm42 °FFog.2 mph75%29.59 "Hg5 mi
8:00 pm43 °FFog.1 mph75%29.62 "Hg4 mi
7:00 pm46 °FFog.2 mph70%29.65 "Hg5 mi
6:00 pm48 °FPassing clouds.1 mph62%29.67 "Hg9 mi
5:00 pm52 °FScattered clouds.2 mph53%29.69 "Hg17 mi
4:00 pm54 °FPartly sunny.5 mph47%29.71 "Hg18 mi
3:00 pm55 °FPartly sunny.5 mph48%29.73 "Hg19 mi
2:00 pm53 °FOvercast.5 mph53%29.76 "Hg18 mi
1:00 pm53 °FOvercast.3 mph56%29.79 "Hg13 mi
Weather by CustomWeather, © 2017

See weather overviewHow to use our weather pages